User: anonymous   Login
Location: Guferjoch
(46.7462°N, 8.4506°E)
Time: 19:39:47
(UTC+00:00)
Language:

Tsikada Rocket - Orbit

View from above orbital plane
View from above orbital plane
View from above satellite
View from above satellite

Ground track
Ground track

The orbit data is extracted from the following two-line orbital elements,

1 23466U 95002D   20263.53720153 -.00000074  00000-0 -94531-4 0  9995
2 23466  82.9211 102.5736 0035672 122.3720 293.3742 13.74436080286800
Epoch (UTC): 19 September 2020 12:53:34
Eccentricity: 0.0035672
inclination: 82.9211°
perigee height: 957 km
apogee height: 1010 km
right ascension of ascending node: 102.5736°
argument of perigee: 122.3720°
revolutions per day: 13.74436080
mean anomaly at epoch: 293.3742°
orbit number at epoch: 28680

The dashed part of the orbit path shows where the satellite is in the earth's shadow,  

DLR